Regional Weather Roundup
Issued by NWS

Home | Current Version | Previous Version | Graphics & Text | Print | Product List | Glossary On
Versions: 1 2 3 4 5 6 7 8 9 10 11 12 13 14 15 16 17 18 19 20 21 22 23 24 25 26 27 28 29 30 31 32 33 34 35 36 37 38 39 40 41 42 43 44 45 46 47 48 49 50
000
ASUS43 KLOT 051308
RWRIL

ILLINOIS REGIONAL WEATHER ROUNDUP
NATIONAL WEATHER SERVICE CHICAGO/ROMEOVILLE IL
700 AM CST MON DEC 05 2016

NOTE: "FAIR" INDICATES FEW OR NO CLOUDS BELOW 12,000 FEET WITH NO
SIGNIFICANT WEATHER AND/OR OBSTRUCTIONS TO VISIBILITY.

* THESE STATIONS ARE NOT UNDER NWS QUALITY CONTROL. THEY ALSO MAY NOT
  REPORT WEATHER SUCH AS PRECIPITATION OR FOG.

ILZ001-002-007-009-015-016-024-051400-
NORTHWEST ILLINOIS

CITY           SKY/WX    TMP DP  RH WIND       PRES   REMARKS
MOLINE         FOG       32  30  92 S7        29.97F VSB 3/4 WCI  26
STERLING*      CLOUDY    32  31  96 VRB3      29.99F FOG
SAVANNA*       CLOUDY    33  32  97 S3        29.97F FOG
$$

ILZ003-004-008-010-011-017-018-051400-
NORTH CENTRAL ILLINOIS

CITY           SKY/WX    TMP DP  RH WIND       PRES   REMARKS
ROCKFORD       CLOUDY    33  31  92 SW6       30.00S FOG     WCI  28
FREEPORT*      CLOUDY    32  31  97 SW8       29.98F FOG     WCI  25
ROCHELLE*      CLOUDY    31  31  98 SW6       29.99F FOG     WCI  26
DE KALB*       CLOUDY    32  31  97 W6        29.99S FOG     WCI  26
$$

ILZ005-006-012>014-019>023-051400-
NORTHEAST ILLINOIS

CITY           SKY/WX    TMP DP  RH WIND       PRES   REMARKS
CHICAGO-OHARE  CLOUDY    33  31  92 W5        30.00R WCI  29
CHICAGO-MIDWAY CLOUDY    34  30  85 SW8       30.02R FOG     WCI  27
AURORA         CLOUDY    33  30  88 SW8       30.01R FOG     WCI  26
LANSING*       CLOUDY    32  32  99 CALM      30.03R
JOLIET*        CLOUDY    33  32  94 W3        30.03S
WAUKEGAN       CLOUDY    32  31  96 VRB5      29.98S FOG     WCI  27
DUPAGE AIRPORT CLOUDY    32  29  88 SW8       30.00R WCI  25
KANKAKEE*      CLOUDY    32  31  96 CALM      30.05R
WHEELING       CLOUDY    32  30  92 SW7       30.01S WCI  26
MORRIS*        CLOUDY    32  31  95 SW3       30.02S
ROMEOVILLE*    CLOUDY    32  32 100 CALM      30.02S
NORTHERLY ISL    N/A     34  30  86 S7          N/A  WCI  28
$$

LMZ740>746-051400-
SOUTHERN LAKE MICHIGAN

STATION/POSITION SKY/WX   TEMP    WIND        PRES    VSBY  WAVE
                          AIR SEA DIR/SP/G                  HT/PER
                          (F)     (DEG/KT/KT) (MB)    (MI)  (FT/S)
HARRISON CRIB              35     270/  7/  8   N/A
BURNHAM HARBOR             34     250/  6/ 11   N/A
CALUMET HARBOR             33     210/  5/  8 1016.2R
BURNS HARBOR               34     200/  5/ 10 1017.3R
$$

ILZ025>027-034>036-040-047-049-050-058-095>099-051400-
WEST-CENTRAL ILLINOIS

CITY           SKY/WX    TMP DP  RH WIND       PRES   REMARKS
QUINCY         FOG       32  32 100 S7        30.00S VSB 1/4 WCI  26
GALESBURG*     FOG       31  31 100 S5        29.98F VSB 1/4 WCI  26
MACOMB*        FOG       32  32 100 S9        30.02S VSB 1/2 WCI  24
JACKSONVILLE*  MOCLDY    33  32  96 SE5       30.02F FOG     WCI  29
PITTSFIELD*    FOG       32  32 100 S5        30.03R VSB 1/4 WCI  27
$$

ILZ028>032-037-038-041>044-048-051>054-059>061-051400-
CENTRAL ILLINOIS

CITY           SKY/WX    TMP DP  RH WIND       PRES   REMARKS
PONTIAC        CLOUDY    32  32 100 S7        30.04R WCI  26
BLOOMINGTON    FOG       31  30  96 S12       30.04R VSB 1   WCI  22
DECATUR        CLOUDY    33  30  88 SW6       30.06R WCI  28
PEORIA         CLOUDY    33  33 100 S8        30.03R FOG     WCI  26
LACON*         CLOUDY    31  31  99 S6        30.02S FOG     WCI  26
LINCOLN*       CLOUDY    34  34 100 S5        30.05R FOG     WCI  30
SPRINGFIELD    FOG       35  34  96 SE7       30.04S VSB 1   WCI  29
TAYLORVILLE    CLOUDY    35  34  98 SE3       30.05S FOG
$$

ILZ033-039-045-046-055>057-062-063-051400-
EAST-CENTRAL ILLINOIS

CITY           SKY/WX    TMP DP  RH WIND       PRES   REMARKS
CHAMPAIGN      CLOUDY    33  30  88 S7        30.06R WCI  27
RANTOUL*       CLOUDY    33  32  96 SW6       30.06R WCI  28
MATTOON        CLOUDY    34  30  85 S5        30.06R WCI  30
PARIS*         CLOUDY    34  32  93 CALM      30.08R
$$

ILZ079-100>102-051400-
SOUTHWEST ILLINOIS

CITY           SKY/WX    TMP DP  RH WIND       PRES   REMARKS
ALTON          CLOUDY    36  34  93 E3        30.05F
BELLEVILLE     CLOUDY    37  37  99 SE3       30.05S
CAHOKIA*       CLOUDY    38  34  85 CALM      30.05S
SPARTA*        CLOUDY    36  34  91 E3        30.07S
$$

ILZ064>066-069>071-074>076-080>082-084>086-088>090-092>094-051400-
SOUTH-CENTRAL ILLINOIS

CITY           SKY/WX    TMP DP  RH WIND       PRES   REMARKS
CARBONDALE     CLOUDY    36  34  92 E3        30.07S
CAIRO*         CLOUDY    32  32 100 NE3       30.06F
EFFINGHAM*     CLOUDY    35  34  96 SE3       30.09S
MARION         MOCLDY    34  34 100 E6        30.08S WCI  29
CENTRALIA*     CLOUDY    37  35  91 CALM      30.06S FOG
SALEM*         CLOUDY    37  32  81 CALM      30.08S
METROPOLIS*    MOCLDY    34  33  94 CALM      30.07S
$$

ILZ067-068-072-073-078-083-087-091-051400-
SOUTHEAST ILLINOIS

CITY           SKY/WX    TMP DP  RH WIND       PRES   REMARKS
LAWRENCEVILLE  CLOUDY    36  31  82 E3        30.10S
FLORA*         CLOUDY    37  33  85 CALM      30.09S
FAIRFIELD*     CLOUDY    36  32  85 CALM      30.08S
HARRISBURG*    CLOUDY    38  35  88 E6        30.08S WCI  33
ROBINSON*      CLOUDY    34  32  90 CALM      30.11R
CARMI*         CLOUDY    37  33  86 E6        30.09R WCI  32
$$

ABBREVIATIONS USED IN REMARKS
   TC - TEMPERATURE IN CELSIUS
  WCI - WIND CHILL INDEX
   HX - HEAT INDEX
  VSB - VISIBILITY
$$





USA.gov is the U.S. government's official web portal to all federal, state and local government web resources and services.